Weather reports worldwide

Advertisment
Castlederg, United Kingdom (3904): temperature & dewpoint: 17.09.2020 07:00:00 - 23.09.2020 07:00:00 (BST)Castlederg, United Kingdom (3904): temperature -20cm: 17.09.2020 07:00:00 - 23.09.2020 07:00:00 (BST)Castlederg, United Kingdom (3904): wind speed & gusts: 17.09.2020 07:00:00 - 23.09.2020 07:00:00 (BST)Castlederg, United Kingdom (3904): wind direction: 17.09.2020 07:00:00 - 23.09.2020 07:00:00 (BST)Castlederg, United Kingdom (3904): reduced air pressure: 17.09.2020 07:00:00 - 23.09.2020 07:00:00 (BST)Castlederg, United Kingdom (3904): visibility: 17.09.2020 07:00:00 - 23.09.2020 07:00:00 (BST)Castlederg, United Kingdom (3904): precipitation: 17.09.2020 07:00:00 - 23.09.2020 07:00:00 (BST)
Date & Time tt [°C] td [°C] tt -20cm [°C] ff [km/h] ff [kn] fx [km/h] fx [kn] dd ppp [hPa] vv [km] rr [mm]
23.09.2020 07:00:00 2,9 2,8 - 4 2 - - W 1003,1 30 -
23.09.2020 06:00:00 3,7 3,6 - 4 2 - - N 1003,0 29 0,0
23.09.2020 05:00:00 4,8 4,7 - 5 3 - - W 1003,0 50 0,0
23.09.2020 04:00:00 5,4 5,2 - 8 4 - - W 1002,7 35 0,0
23.09.2020 03:00:00 6,5 6,1 - 8 4 - - W 1002,7 50 0,0
23.09.2020 02:00:00 7,4 6,9 - 5 3 - - WNW 1002,6 50 0,0
23.09.2020 01:00:00 8,1 7,4 - 4 2 - - W 1002,4 40 0,0
23.09.2020 00:00:00 9,3 8,4 - 8 4 - - WNW 1002,3 50 0,0
22.09.2020 23:00:00 9,7 9,2 - 4 2 - - W 1001,7 11 0,0
22.09.2020 22:00:00 9,6 9,1 - 5 3 - - W 1001,3 45 0,0
22.09.2020 21:00:00 10,2 9,6 - 5 3 - - W 1000,7 35 0,0
22.09.2020 20:00:00 10,8 10,4 - 13 7 - - W 1000,2 2,7 0,6
22.09.2020 19:00:00 11,4 10,9 - 9 5 - - SW 999,5 16 0,6
22.09.2020 18:00:00 12,5 12,1 - 9 5 - - WSW 999,1 23 0,2
22.09.2020 17:00:00 12,9 12,4 - 22 12 - - SW 998,8 40 1,8
22.09.2020 16:00:00 14,0 13,3 - 24 13 46 25 S 998,4 4,4 0,8
22.09.2020 15:00:00 13,9 13,0 - 26 14 46 25 SSW 999,1 3,2 0,2
22.09.2020 14:00:00 14,6 12,7 - 28 15 52 28 SSW 999,6 5 0,0
22.09.2020 13:00:00 15,0 11,9 - 29 16 54 29 SSW 999,8 40 0,0
22.09.2020 12:00:00 14,5 11,0 - 29 16 - - S 1000,5 40 0,0
22.09.2020 11:00:00 14,0 10,5 - 18 10 - - S 1001,4 45 0,0
22.09.2020 10:00:00 13,4 10,2 15,5 16 9 - - SSW 1002,4 45 0,0
22.09.2020 09:00:00 12,7 10,1 - 9 5 - - S 1003,3 50 0,0
22.09.2020 08:00:00 12,4 9,9 - 24 13 - - S 1003,7 45 0,0
22.09.2020 07:00:00 12,2 9,7 - 16 9 - - S 1004,8 50 0,0
22.09.2020 06:00:00 12,1 9,7 - 13 7 - - S 1005,6 45 0,0
22.09.2020 05:00:00 12,0 9,6 - 18 10 - - SSW 1006,8 50 0,0
22.09.2020 04:00:00 11,8 9,8 - 15 8 - - S 1007,7 50 0,0
22.09.2020 03:00:00 11,7 9,3 - 8 4 - - SSE 1009,2 45 0,0
22.09.2020 02:00:00 11,8 9,3 - 13 7 - - SSE 1009,7 45 0,0
22.09.2020 01:00:00 12,1 9,6 - 13 7 - - SSE 1010,8 45 0,0
22.09.2020 00:00:00 12,1 9,2 - 8 4 - - S 1011,8 50 0,0
21.09.2020 23:00:00 11,4 9,2 - 13 7 - - S 1012,4 45 0,0
21.09.2020 22:00:00 10,4 9,4 - 9 5 - - SSW 1013,4 45 0,0
21.09.2020 21:00:00 10,9 9,3 - 8 4 - - S 1013,8 35 0,0
21.09.2020 20:00:00 12,4 10,3 - 5 3 - - S 1014,4 35 0,0
21.09.2020 19:00:00 13,3 10,5 - 9 5 - - WSW 1014,5 40 0,0
21.09.2020 18:00:00 14,2 10,3 - 15 8 - - WSW 1014,8 35 0,0
21.09.2020 17:00:00 15,0 10,3 - 11 6 - - SW 1015,1 50 0,0
21.09.2020 16:00:00 15,8 10,9 - 11 6 - - SW 1015,6 29 0,0
21.09.2020 15:00:00 17,0 12,0 - 18 10 - - SW 1015,7 35 0,0
21.09.2020 14:00:00 14,5 10,1 - 16 9 - - SW 1016,5 30 0,0
21.09.2020 13:00:00 14,4 10,9 - 15 8 - - SW 1016,6 40 0,0
21.09.2020 12:00:00 13,4 11,8 - 15 8 - - SSW 1016,7 30 0,0
21.09.2020 11:00:00 12,1 11,5 - 15 8 - - SSW 1016,9 23 0,0
21.09.2020 10:00:00 11,6 11,6 - 5 3 - - S 1017,0 23 0,0
21.09.2020 09:00:00 9,6 9,6 - 5 3 - - ENE 1017,2 6 0,0
21.09.2020 08:00:00 8,1 8,1 - 5 3 - - NNE 1017,2 7 0,0
21.09.2020 07:00:00 5,6 5,6 - 4 2 - - W 1017,4 4,6 0,0
21.09.2020 06:00:00 5,4 5,4 - 2 1 - - WNW 1017,2 3,8 0,0
21.09.2020 05:00:00 5,3 5,2 - 0 0 - - N 1017,6 0,9 0,0
21.09.2020 04:00:00 5,7 5,5 - 2 1 - - WSW 1017,7 2,1 0,0
21.09.2020 03:00:00 6,8 6,5 - 4 2 - - W 1018,3 3,7 0,0
21.09.2020 02:00:00 7,8 7,6 - 4 2 - - E 1018,7 8 0,0
21.09.2020 01:00:00 8,0 7,9 - 11 6 - - ESE 1019,3 8 0,0
21.09.2020 00:00:00 8,3 8,2 - 4 2 - - E 1019,6 11 0,0
20.09.2020 23:00:00 9,1 8,9 - 0 0 - - N 1020,2 15 0,0
20.09.2020 22:00:00 9,3 9,0 - 2 1 - - N 1020,3 7 0,0
20.09.2020 21:00:00 10,0 9,1 - 2 1 - - E 1020,4 13 0,0
20.09.2020 20:00:00 11,0 8,7 - 2 1 - - SE 1020,4 11 0,0
20.09.2020 19:00:00 14,9 10,2 - 4 2 - - ESE 1020,2 50 0,0
20.09.2020 18:00:00 16,5 10,1 - 9 5 - - ESE 1020,3 23 0,0
20.09.2020 17:00:00 17,7 9,8 - 8 4 - - SE 1021,2 45 0,0
20.09.2020 16:00:00 17,9 10,1 - 8 4 - - SE 1021,6 45 0,0
20.09.2020 15:00:00 17,9 11,1 - 5 3 - - SE 1021,9 30 0,0
20.09.2020 14:00:00 16,7 10,5 - 4 2 - - E 1022,4 28 0,0
20.09.2020 13:00:00 14,6 11,4 - 4 2 - - W 1023,2 22 0,0
20.09.2020 12:00:00 11,9 9,7 - 4 2 - - NE 1024,0 27 0,0
20.09.2020 11:00:00 10,4 10,4 - 4 2 - - E 1024,3 25 0,0
20.09.2020 10:00:00 8,3 8,3 - 2 1 - - NNE 1024,6 11 0,0
20.09.2020 09:00:00 6,6 6,6 - 4 2 - - WSW 1025,0 6 0,0
20.09.2020 08:00:00 5,4 5,4 - 2 1 - - WSW 1024,7 5 0,2
20.09.2020 07:00:00 4,0 4,0 - 0 0 - - N 1024,3 0,1 0,0
20.09.2020 06:00:00 2,8 2,8 - 2 1 - - SSW 1024,3 1,9 0,0
20.09.2020 05:00:00 1,8 1,7 - 2 1 - - SE 1024,5 0,4 0,0
20.09.2020 04:00:00 2,7 2,7 - 4 2 - - WSW 1024,5 4,8 0,0
20.09.2020 03:00:00 2,9 2,8 - 4 2 - - WSW 1024,6 0,3 0,0
20.09.2020 02:00:00 3,6 3,6 - 0 0 - - N 1024,4 0,6 0,0
20.09.2020 01:00:00 3,8 3,7 - 2 1 - - SW 1024,7 1,0 0,0
20.09.2020 00:00:00 4,3 4,1 - 4 2 - - W 1024,6 2,9 0,0
19.09.2020 23:00:00 5,2 4,8 - 4 2 - - W 1024,7 7 0,0
19.09.2020 22:00:00 6,0 5,2 - 2 1 - - WSW 1024,4 23 0,0
19.09.2020 21:00:00 8,0 6,2 - 2 1 - - SSE 1024,0 40 0,0
19.09.2020 20:00:00 11,5 7,9 - 2 1 - - NE 1023,7 30 0,0
19.09.2020 19:00:00 14,1 9,3 - 8 4 - - ENE 1023,1 45 0,0
19.09.2020 18:00:00 16,4 10,0 - 9 5 - - ENE 1022,7 50 0,0
19.09.2020 17:00:00 18,1 10,6 - 11 6 - - ENE 1022,6 35 0,0
19.09.2020 16:00:00 18,3 10,1 - 13 7 - - ENE 1022,6 35 0,0
19.09.2020 15:00:00 18,2 10,2 - 13 7 - - E 1023,0 30 0,0
19.09.2020 14:00:00 17,5 10,6 - 13 7 - - E 1023,5 40 0,0
19.09.2020 13:00:00 15,8 9,6 - 15 8 - - ENE 1024,1 35 0,0
19.09.2020 12:00:00 14,7 9,8 - 13 7 - - ENE 1024,5 35 0,0
19.09.2020 11:00:00 12,0 9,5 - 5 3 - - NE 1025,1 35 0,0
19.09.2020 10:00:00 11,6 11,3 15,7 8 4 - - E 1025,2 40 0,0
19.09.2020 09:00:00 8,0 8,0 - 2 1 - - NNW 1025,1 12 0,0
19.09.2020 08:00:00 4,9 4,9 - 2 1 - - SSW 1025,0 1,3 0,0
19.09.2020 07:00:00 4,2 4,2 - 4 2 - - E 1024,6 3,8 0,0
19.09.2020 06:00:00 3,2 3,2 - 0 0 - - N 1024,9 2,6 0,0
19.09.2020 05:00:00 3,6 3,6 - 2 1 - - WSW 1024,8 11 0,0
19.09.2020 04:00:00 4,2 4,1 - 4 2 - - NNE 1024,9 4,0 0,0
19.09.2020 03:00:00 3,4 3,2 - 5 3 - - SW 1025,2 0,2 0,0
19.09.2020 02:00:00 4,5 4,3 - 4 2 - - W 1025,3 6 0,0
19.09.2020 01:00:00 5,1 4,8 - 2 1 - - WNW 1025,3 1,6 0,0
19.09.2020 00:00:00 7,6 7,4 - 5 3 - - NNE 1025,3 9 0,0
18.09.2020 23:00:00 7,8 6,6 - 5 3 - - NNE 1025,5 11 0,0
18.09.2020 22:00:00 9,4 8,6 - 2 1 - - ENE 1025,7 26 0,0
18.09.2020 21:00:00 10,1 9,2 - 2 1 - - WSW 1025,5 22 0,0
18.09.2020 20:00:00 13,1 9,8 - 5 3 - - NNE 1025,3 29 0,0
18.09.2020 19:00:00 15,1 10,1 - 8 4 - - ENE 1025,4 45 0,0
18.09.2020 18:00:00 17,9 9,8 - 16 9 - - ENE 1025,0 50 0,0
18.09.2020 17:00:00 18,9 10,7 - 15 8 - - ENE 1024,9 45 0,0
18.09.2020 16:00:00 20,2 12,4 - 15 8 - - E 1025,3 30 0,0
18.09.2020 15:00:00 20,5 13,4 - 13 7 - - ENE 1025,6 35 0,0
18.09.2020 14:00:00 20,1 13,0 - 15 8 - - E 1026,2 23 0,0
18.09.2020 13:00:00 19,0 13,4 - 15 8 - - NE 1026,8 30 0,0
18.09.2020 12:00:00 18,2 13,0 - 4 2 - - E 1027,1 19 0,0
18.09.2020 11:00:00 15,8 12,7 - 4 2 - - ENE 1027,4 13 0,0
18.09.2020 10:00:00 12,4 12,4 16,4 2 1 - - SSE 1027,8 11 0,0
18.09.2020 09:00:00 9,0 9,0 - 2 1 - - SSW 1027,9 3,5 0,0
18.09.2020 08:00:00 7,3 7,3 - 2 1 - - SSW 1027,6 0,2 0,0
18.09.2020 07:00:00 7,3 7,1 - 2 1 - - W 1027,3 0,1 0,0
18.09.2020 06:00:00 8,0 7,6 - 0 0 - - N 1027,1 2,2 0,0
18.09.2020 05:00:00 8,7 8,2 - 0 0 - - N 1027,1 0,9 0,0
18.09.2020 04:00:00 9,8 8,8 - 4 2 - - E 1027,3 2,0 0,0
18.09.2020 03:00:00 11,5 10,8 - 8 4 - - NE 1027,5 4,9 0,0
18.09.2020 02:00:00 13,0 11,9 - 4 2 - - NE 1027,5 5 0,0
18.09.2020 01:00:00 13,3 12,3 - 5 3 - - NE 1027,7 6 0,0
18.09.2020 00:00:00 13,9 12,9 - 5 3 - - NE 1027,9 7 0,0
17.09.2020 23:00:00 13,8 12,5 - 8 4 - - NE 1028,0 7 0,0
17.09.2020 22:00:00 14,6 13,2 - 5 3 - - NE 1027,9 8 0,0
17.09.2020 21:00:00 15,3 13,4 - 8 4 - - ESE 1027,7 10 0,0
17.09.2020 20:00:00 15,7 13,4 - 8 4 - - ESE 1027,4 11 0,0
17.09.2020 19:00:00 17,3 14,1 - 5 3 - - SE 1027,1 13 0,0
17.09.2020 18:00:00 18,1 14,3 - 5 3 - - SE 1027,1 12 0,0
17.09.2020 17:00:00 18,1 14,3 - 9 5 - - SSE 1027,4 14 0,0
17.09.2020 16:00:00 17,2 13,9 - 9 5 - - SSE 1028,0 14 0,0
17.09.2020 15:00:00 16,2 13,8 - 11 6 - - SSE 1028,5 11 0,0
17.09.2020 14:00:00 15,7 13,3 - 11 6 - - ESE 1028,9 11 0,0
17.09.2020 13:00:00 15,3 13,1 - 13 7 - - ESE 1029,2 12 0,0
17.09.2020 12:00:00 15,0 13,1 - 15 8 - - SE 1029,4 11 0,0
17.09.2020 11:00:00 14,5 12,7 - 15 8 - - SE 1029,4 10 0,0
17.09.2020 10:00:00 14,3 12,6 16,7 13 7 - - ESE 1029,6 10 0,0
17.09.2020 09:00:00 14,1 12,6 - 13 7 - - ESE 1029,4 11 0,0
17.09.2020 08:00:00 13,7 12,7 - 9 5 - - ESE 1029,5 10 0,0
17.09.2020 07:00:00 13,5 12,5 - 8 4 - - E 1029,3 12 0,0

tt = temperature
td = dewpoint
tt -20cm = temperature -20cm
ff = wind speed
fx = gusts
dd = wind direction
ppp = reduced air pressure
vv = visibility
rr = precipitation

Next stations